EW3670 Weather Reports


Display with metric or nautical units.
time (UTC)temp
F
wind
direction
speed
MPH
gust
MPH
rain 1hr
in
rain 24hr
in
rain mn
in
humidity
%
barometer
mb
20260503204053 62 310 5.0 14.0 0.00 0.00 0.00 22 1005.1
20260503203550 62 315 4.0 13.0 0.00 0.00 0.00 23 1005.2
20260503203104 62 302 3.0 10.0 0.00 0.00 0.00 23 1005.1
20260503202551 62 315 2.0 10.0 0.00 0.00 0.00 24 1005.2
20260503202051 61 320 4.0 10.0 0.00 0.00 0.00 23 1005.2
20260503201554 61 338 3.0 10.0 0.00 0.00 0.00 24 1005.2
20260503201050 61 279 2.0 12.0 0.00 0.00 0.00 23 1005.2
20260503200552 61 294 3.0 13.0 0.00 0.00 0.00 24 1005.5
20260503200057 61 344 3.0 13.0 0.00 0.00 0.00 24 1005.6
20260503195551 61 298 4.0 13.0 0.00 0.00 0.00 24 1005.5
20260503195050 61 224 2.0 13.0 0.00 0.00 0.00 24 1005.5
20260503194556 61 5 5.0 13.0 0.00 0.00 0.00 24 1005.7
20260503194053 61 278 4.0 16.0 0.00 0.00 0.00 23 1005.9
20260503193549 61 218 3.0 16.0 0.00 0.00 0.00 24 1005.9
20260503193109 61 281 1.0 13.0 0.00 0.00 0.00 25 1006.0
20260503192550 61 327 3.0 15.0 0.00 0.00 0.00 25 1006.1
20260503192052 61 294 4.0 18.0 0.00 0.00 0.00 24 1006.2
20260503191556 61 291 2.0 18.0 0.00 0.00 0.00 26 1006.3
20260503191054 60 292 2.0 11.0 0.00 0.00 0.00 25 1006.4
20260503190550 61 275 3.0 11.0 0.00 0.00 0.00 25 1006.4
20260503190055 60 277 3.0 13.0 0.00 0.00 0.00 26 1006.5
20260503185551 60 5 4.0 13.0 0.00 0.00 0.00 26 1006.6
20260503185053 60 301 3.0 14.0 0.00 0.00 0.00 26 1006.5
20260503184605 60 215 6.0 14.0 0.00 0.00 0.00 26 1006.6
20260503184049 60 328 1.0 12.0 0.00 0.00 0.00 26 1006.7
20260503183550 60 299 4.0 12.0 0.00 0.00 0.00 26 1006.7
20260503183108 59 288 1.0 8.0 0.00 0.00 0.00 28 1006.9
20260503182554 60 290 3.0 11.0 0.00 0.00 0.00 26 1006.9
20260503182052 60 324 2.0 11.0 0.00 0.00 0.00 27 1007.0
20260503181607 60 339 3.0 9.0 0.00 0.00 0.00 26 1007.2
20260503181053 60 15 4.0 10.0 0.00 0.00 0.00 28 1007.3
20260503180550 60 273 2.0 10.0 0.00 0.00 0.00 27 1007.2
20260503180053 59 325 3.0 9.0 0.00 0.00 0.00 28 1007.2
20260503175552 59 336 2.0 12.0 0.00 0.00 0.00 29 1007.5
20260503175054 57 297 1.0 12.0 0.00 0.00 0.00 29 1007.5
20260503174556 57 234 3.0 10.0 0.00 0.00 0.00 29 1007.5
20260503174050 58 281 2.0 12.0 0.00 0.00 0.00 30 1007.6
20260503173550 59 276 1.0 12.0 0.00 0.00 0.00 29 1007.7
20260503173058 58 322 4.0 12.0 0.00 0.00 0.00 28 1007.8
20260503172550 58 272 3.0 12.0 0.00 0.00 0.00 29 1007.8
20260503172050 58 287 4.0 12.0 0.00 0.00 0.00 28 1007.9
20260503171552 57 282 2.0 10.0 0.00 0.00 0.00 29 1008.0
20260503171052 58 246 1.0 14.0 0.00 0.00 0.00 29 1008.1
20260503170553 57 242 2.0 14.0 0.00 0.00 0.00 28 1008.2
20260503150552 53 336 2.0 9.0 0.00 0.00 0.00 39 1009.7
20260503131052 48 287 2.0 6.0 0.00 0.00 0.00 50 1010.5
20260503130552 47 273 0.0 6.0 0.00 0.00 0.00 53 1010.5
20260503110552 41 0 1.0 7.0 0.00 0.00 0.00 65 1010.6
20260503090105 41 0 0.0 4.0 0.00 0.00 0.00 63 1010.3
20260503081622 42 313 1.0 5.0 0.00 0.00 0.00 62 1010.6
20260503081053 42 313 1.0 5.0 0.00 0.00 0.00 62 1010.6
20260503080553 42 313 1.0 4.0 0.00 0.00 0.00 62 1010.6
20260503080111 42 0 0.0 5.0 0.00 0.00 0.00 62 1010.6
20260503072552 42 288 0.0 4.0 0.00 0.00 0.00 62 1010.6
20260503072052 42 0 0.0 4.0 0.00 0.00 0.00 61 1010.7
20260503071554 42 287 0.0 4.0 0.00 0.00 0.00 61 1010.6
20260503071051 43 287 0.0 5.0 0.00 0.00 0.00 61 1010.6
20260503070555 43 287 0.0 5.0 0.00 0.00 0.00 60 1010.6
20260503055049 43 325 1.0 8.0 0.00 0.00 0.00 57 1010.9
20260503054555 43 299 1.0 8.0 0.00 0.00 0.00 57 1010.8
20260503054051 43 321 1.0 9.0 0.00 0.00 0.00 56 1010.9
20260503053551 43 323 2.0 9.0 0.00 0.00 0.00 56 1010.9
20260503053053 44 320 1.0 6.0 0.00 0.00 0.00 56 1011.0
20260503052551 44 315 0.0 6.0 0.00 0.00 0.00 55 1011.0
20260503052051 44 0 1.0 6.0 0.00 0.00 0.00 55 1011.0
20260503051557 44 0 1.0 8.0 0.00 0.00 0.00 55 1011.0
20260503051052 44 0 1.0 8.0 0.00 0.00 0.00 54 1011.1
20260503050552 44 335 2.0 5.0 0.00 0.00 0.00 54 1011.1
20260503050051 44 0 0.0 6.0 0.00 0.00 0.00 53 1011.2
20260503045552 44 306 0.0 7.0 0.00 0.00 0.00 53 1011.2
20260503045051 44 0 2.0 7.0 0.00 0.00 0.00 53 1011.2
20260503044604 44 342 1.0 6.0 0.00 0.00 0.00 53 1011.3
20260503044051 44 0 1.0 5.0 0.00 0.00 0.00 53 1011.3
20260503043552 44 302 2.0 5.0 0.00 0.00 0.00 53 1011.3
20260503043059 44 0 0.0 4.0 0.00 0.00 0.00 53 1011.3
20260503042554 45 307 0.0 5.0 0.00 0.00 0.00 52 1011.3
20260503042053 45 0 2.0 5.0 0.00 0.00 0.00 52 1011.3
20260503041558 45 306 1.0 8.0 0.00 0.00 0.00 51 1011.3
20260503041051 45 346 1.0 8.0 0.00 0.00 0.00 51 1011.4
20260503040552 45 329 0.0 6.0 0.00 0.00 0.00 51 1011.4
20260503035553 45 0 1.0 6.0 0.00 0.00 0.00 51 1011.4
20260503035052 45 0 0.0 6.0 0.00 0.00 0.00 51 1011.4
20260503034600 45 325 2.0 6.0 0.00 0.00 0.00 51 1011.4
20260503034054 45 0 1.0 4.0 0.00 0.00 0.00 51 1011.4
20260503033552 45 0 0.0 3.0 0.00 0.00 0.00 51 1011.3
20260503033120 45 0 0.0 2.0 0.00 0.00 0.00 51 1011.3
20260503032552 45 0 0.0 3.0 0.00 0.00 0.00 50 1011.4
20260503032052 45 0 0.0 3.0 0.00 0.00 0.00 50 1011.4
20260503031600 45 295 0.0 2.0 0.00 0.00 0.00 50 1011.4
20260503031053 45 295 0.0 2.0 0.00 0.00 0.00 50 1011.5
20260503030556 45 295 0.0 2.0 0.00 0.00 0.00 50 1011.5
20260503030107 45 0 0.0 2.0 0.00 0.00 0.00 51 1011.5
20260503025552 45 0 0.0 2.0 0.00 0.00 0.00 51 1011.5
20260503025051 45 0 0.0 2.0 0.00 0.00 0.00 51 1011.6
20260503024621 45 0 0.0 3.0 0.00 0.00 0.00 51 1011.6
20260503024052 46 0 0.0 3.0 0.00 0.00 0.00 51 1011.7
20260503023551 46 0 0.0 3.0 0.00 0.00 0.00 51 1011.7
20260503023054 46 0 0.0 3.0 0.00 0.00 0.00 51 1011.8
20260503022556 46 0 0.0 3.0 0.00 0.00 0.00 51 1011.7
20260503022055 46 0 0.0 4.0 0.00 0.00 0.00 51 1011.7
20260503021600 46 0 0.0 4.0 0.00 0.00 0.00 50 1011.7
20260503021052 46 0 1.0 4.0 0.00 0.00 0.00 49 1011.7
20260503020552 46 0 0.0 2.0 0.00 0.00 0.00 50 1011.7
20260503020055 46 0 0.0 4.0 0.00 0.00 0.00 49 1011.7
20260503015555 46 0 0.0 4.0 0.00 0.00 0.00 49 1011.7
20260503015052 46 0 1.0 5.0 0.00 0.00 0.00 49 1011.7
20260503014554 46 0 1.0 7.0 0.00 0.00 0.00 48 1011.7
20260503014055 46 0 1.0 7.0 0.00 0.00 0.00 48 1011.6
20260503013554 46 0 0.0 5.0 0.00 0.00 0.00 48 1011.6
20260503013053 46 0 1.0 10.0 0.00 0.00 0.00 48 1011.6
20260503012554 46 294 2.0 10.0 0.00 0.00 0.00 47 1011.6
20260503012051 46 317 1.0 6.0 0.00 0.00 0.00 48 1011.6
20260503011600 46 319 0.0 7.0 0.00 0.00 0.00 47 1011.6
20260503011049 46 319 1.0 7.0 0.00 0.00 0.00 47 1011.6
20260503010551 47 284 1.0 7.0 0.00 0.00 0.00 47 1011.5
20260503010050 47 0 1.0 7.0 0.00 0.00 0.00 47 1011.4
20260503005552 47 0 1.0 6.0 0.00 0.00 0.00 47 1011.5
20260503005052 47 316 0.0 6.0 0.00 0.00 0.00 47 1011.4
20260503004548 47 316 1.0 6.0 0.00 0.00 0.00 47 1011.3
20260503004052 47 0 2.0 10.0 0.00 0.00 0.00 47 1011.3
20260503003551 47 313 2.0 10.0 0.00 0.00 0.00 46 1011.3
20260503003051 47 334 1.0 8.0 0.00 0.00 0.00 46 1011.3
20260503002553 47 316 1.0 9.0 0.00 0.00 0.00 46 1011.3
20260503002051 47 341 2.0 9.0 0.00 0.00 0.00 45 1011.2
20260503001600 47 335 1.0 8.0 0.00 0.00 0.00 45 1011.2
20260503001050 48 338 2.0 9.0 0.00 0.00 0.00 45 1011.3
20260503000551 48 344 1.0 10.0 0.00 0.00 0.00 45 1011.2
20260503000106 48 321 4.0 10.0 0.00 0.00 0.00 45 1011.1
20260502235550 48 314 4.0 10.0 0.00 0.00 0.00 44 1011.2
20260502235050 48 316 3.0 9.0 0.00 0.00 0.00 44 1011.1
20260502234606 48 285 3.0 9.0 0.00 0.00 0.00 44 1011.2
20260502234050 48 341 2.0 11.0 0.00 0.00 0.00 43 1011.1
20260502233553 48 325 3.0 11.0 0.00 0.00 0.00 43 1011.2
20260502233108 48 319 3.0 11.0 0.00 0.00 0.00 42 1011.1
20260502232551 49 263 4.0 15.0 0.00 0.00 0.00 42 1011.0
20260502232051 49 308 4.0 15.0 0.00 0.00 0.00 41 1011.0
20260502231603 49 14 5.0 15.0 0.00 0.00 0.00 40 1011.0
20260502231051 50 323 4.0 12.0 0.00 0.00 0.00 41 1011.0
20260502230551 50 318 3.0 12.0 0.00 0.00 0.00 40 1010.9
20260502230049 50 321 3.0 12.0 0.00 0.00 0.00 39 1010.9
20260502225553 50 335 4.0 10.0 0.00 0.00 0.00 38 1010.9
20260502225048 51 360 2.0 12.0 0.00 0.00 0.00 38 1010.8
20260502224552 51 331 4.0 16.0 0.00 0.00 0.00 36 1010.8
20260502224051 52 316 2.0 16.0 0.00 0.00 0.00 37 1010.7
20260502223550 51 37 2.0 12.0 0.00 0.00 0.00 37 1010.7
20260502223052 51 307 3.0 13.0 0.00 0.00 0.00 36 1010.7
20260502222552 52 334 2.0 14.0 0.00 0.00 0.00 35 1010.7
20260502222051 52 315 5.0 14.0 0.00 0.00 0.00 35 1010.7
20260502221603 52 346 3.0 10.0 0.00 0.00 0.00 36 1010.7
20260502221055 52 342 3.0 13.0 0.00 0.00 0.00 37 1010.7
20260502220551 52 321 5.0 13.0 0.00 0.00 0.00 37 1010.7
20260502220105 52 243 2.0 10.0 0.00 0.00 0.00 38 1010.7
20260502215551 52 306 4.0 10.0 0.00 0.00 0.00 38 1010.7
20260502215050 51 14 3.0 9.0 0.00 0.00 0.00 39 1010.7
20260502214607 51 336 2.0 12.0 0.00 0.00 0.00 40 1010.6
20260502214050 51 329 2.0 12.0 0.00 0.00 0.00 40 1010.7
20260502213555 51 294 2.0 8.0 0.00 0.00 0.00 41 1010.7
20260502213059 51 0 1.0 14.0 0.00 0.00 0.00 41 1010.7
20260502212553 52 296 2.0 14.0 0.00 0.00 0.00 41 1010.7
20260502212053 52 301 1.0 7.0 0.00 0.00 0.00 41 1010.7
20260502211605 52 301 2.0 9.0 0.00 0.00 0.00 42 1010.6
20260502211053 52 0 3.0 9.0 0.00 0.00 0.00 43 1010.6
20260502210553 51 333 2.0 10.0 0.00 0.00 0.00 45 1010.7
20260502210054 50 337 1.0 12.0 0.00 0.00 0.00 46 1010.7
20260502205553 50 0 4.0 12.0 0.00 0.00 0.00 46 1010.7
20260502205053 50 323 5.0 11.0 0.00 0.00 0.00 46 1010.6
20260502204555 50 315 3.0 11.0 0.00 0.00 0.00 47 1010.6